Location: ActonStarParty
(42.4766°N, 71.4538°W)
Time: 08:40:44
(UTC-04:00)

ATLAS CENTAUR R/B - Pass Details

Date: 19 April 2018
Orbit: 467 x 686 km, 64.7° (Epoch: 17 May)

Event Time Altitude Azimuth Distance (km) Brightness Sun altitude
Rises 20:46:51 0° 197° (SSW) 2,491 4.5 -13.5°
Reaches altitude 10° 20:48:59 10° 191° (S) 1,630 3.5 -13.8°
Maximum altitude 20:52:26 44° 118° (ESE) 679 1.3 -14.4°
Drops below altitude 10° 20:56:03 10° 46° (NE) 1,711 3.7 -14.9°
Sets 20:58:20 0° 40° (NE) 2,633 4.7 -15.3°
